sat.trackr.live / text

‹ back to catalog

STARLINK-31279

NORAD 59086 · 2024-041N

PAYLOAD ACTIVE UNKNOWN

§ Identity

Operator
Country
US
Launch date
2024-02-29
Launch site
AFETR
Launch vehicle
Mass (kg)
RCS (m²)

Purposes: comms

External: N2YO · Heavens-Above · Gunter

§ Orbital elements

Epoch: 2026-05-24T23:17:29.709600Z

Period
94.27 min
Inclination
42.9991°
Eccentricity
0.0001340
Mean motion
15.27577841 rev/d
Perigee alt
482.1 km
Apogee alt
484.0 km
Semi-major
6,861.2 km
B*
1.5669e-7
RAAN
240.2538°
Arg perigee
273.1071°
Mean anomaly
86.9628°
Rev number
12,598

§ Raw data

STARLINK-312791 59086U 24041N   26144.97048275 -.00000258  00000+0  15669-6 0  99962 59086  42.9991 240.2538 0001340 273.1071  86.9628 15.27577841125988

JSON: /api/v1/satellites/59086 · /tle

For live sub-satellite position, see the globe view (requires WebGL).

§ Visibility from observer

Set your observer location to see the next 7 days of passes ≥ 10°. The values pass through the URL so the page stays shareable.

No JS? Fill the form by hand. The geolocation button needs JavaScript.